^^
Your Local Weather - Clay, NY Station Historical Data
Daily Summary for September 14, 2017 Units:  English    Metric   Both
« Previous Day
Next Day »
Daily Weekly Monthly Yearly Custom
  High: Low: Average:
Temperature: 73.3 °F 60.2 °F 67 °F
Dew Point: 66.8 °F 58.5 °F 63.4 °F
Humidity: 94% 77% 88%
Wind Speed: 2.0mph 0.0mph 0.3mph
Wind Gust: 5.0mph - -
Wind- - SSW
Pressure: 29.91 in 29.75 in -
Precipitation: 0.01 in    
Historical Graphs
 
 
Tabular Data for September 14, 2017
Time Temperature Dew Point Pressure Wind Wind Speed Wind Gust Humidity Rainfall Rate (Hourly) solar
00:02 65.9 °F 63.8 °F 29.76 in Calm     93% 0.00 in 0 W/m2
00:08 65.9 °F 63.8 °F 29.76 in Calm     93% 0.00 in 0 W/m2
00:14 65.9 °F 63.8 °F 29.76 in Calm     93% 0.00 in 0 W/m2
00:20 65.8 °F 63.7 °F 29.76 in Calm     93% 0.00 in 0 W/m2
00:26 65.8 °F 63.7 °F 29.76 in Calm     93% 0.00 in 0 W/m2
00:32 65.8 °F 63.7 °F 29.76 in Calm     93% 0.00 in 0 W/m2
00:38 65.8 °F 63.7 °F 29.76 in Calm     93% 0.00 in 0 W/m2
00:44 65.8 °F 63.7 °F 29.76 in Calm     93% 0.00 in 0 W/m2
00:50 65.8 °F 63.7 °F 29.76 in Calm     93% 0.00 in 0 W/m2
00:52 65.8 °F 63.7 °F 29.76 in Calm     93% 0.00 in 0 W/m2
00:58 65.8 °F 63.7 °F 29.76 in Calm     93% 0.00 in 0 W/m2
01:04 65.7 °F 63.6 °F 29.76 in Calm     93% 0.00 in 0 W/m2
01:10 65.8 °F 63.7 °F 29.76 in Calm     93% 0.00 in 0 W/m2
01:16 65.8 °F 63.7 °F 29.76 in Calm     93% 0.00 in 0 W/m2
01:24 65.8 °F 63.7 °F 29.76 in Calm     93% 0.00 in 0 W/m2
01:30 65.8 °F 63.7 °F 29.76 in Calm     93% 0.00 in 0 W/m2
01:36 65.7 °F 63.6 °F 29.76 in Calm     93% 0.00 in 0 W/m2
01:42 65.6 °F 63.5 °F 29.76 in Calm     93% 0.00 in 0 W/m2
01:48 65.6 °F 63.5 °F 29.76 in Calm     93% 0.00 in 0 W/m2
01:54 65.6 °F 63.5 °F 29.76 in Calm     93% 0.00 in 0 W/m2
02:00 65.6 °F 63.5 °F 29.75 in Calm     93% 0.00 in 0 W/m2
02:06 65.7 °F 63.6 °F 29.75 in Calm     93% 0.00 in 0 W/m2
02:12 65.7 °F 63.9 °F 29.75 in Calm     94% 0.00 in 0 W/m2
02:18 65.6 °F 63.5 °F 29.75 in Calm     93% 0.00 in 0 W/m2
02:24 65.6 °F 63.5 °F 29.75 in Calm     93% 0.00 in 0 W/m2
02:30 65.6 °F 63.8 °F 29.75 in Calm     94% 0.00 in 0 W/m2
02:36 65.6 °F 63.8 °F 29.76 in Calm     94% 0.00 in 0 W/m2
02:42 65.6 °F 63.8 °F 29.75 in Calm     94% 0.00 in 0 W/m2
02:48 65.7 °F 63.9 °F 29.75 in Calm     94% 0.00 in 0 W/m2
02:54 65.7 °F 63.9 °F 29.75 in Calm     94% 0.00 in 0 W/m2
03:00 65.8 °F 64.0 °F 29.75 in Calm     94% 0.00 in 0 W/m2
03:06 65.8 °F 64.0 °F 29.75 in Calm     94% 0.00 in 0 W/m2
03:12 65.8 °F 64.0 °F 29.75 in Calm     94% 0.00 in 0 W/m2
03:18 65.6 °F 63.8 °F 29.75 in Calm     94% 0.00 in 0 W/m2
03:24 65.5 °F 63.7 °F 29.75 in Calm     94% 0.00 in 0 W/m2
03:30 65.5 °F 63.7 °F 29.75 in Calm     94% 0.00 in 0 W/m2
03:36 65.8 °F 64.0 °F 29.75 in Calm     94% 0.00 in 0 W/m2
03:42 65.9 °F 64.1 °F 29.75 in Calm     94% 0.00 in 0 W/m2
03:48 65.9 °F 64.1 °F 29.75 in Calm   1.0 mph 94% 0.00 in 0 W/m2
03:54 66.0 °F 64.2 °F 29.75 in Calm   1.0 mph 94% 0.00 in 0 W/m2
04:00 66.1 °F 64.3 °F 29.75 in Calm     94% 0.00 in 0 W/m2
04:06 66.3 °F 64.5 °F 29.75 in Calm     94% 0.00 in 0 W/m2
04:12 66.3 °F 64.2 °F 29.75 in South 1.0 mph 1.0 mph 93% 0.00 in 0 W/m2
04:18 66.3 °F 64.2 °F 29.75 in SW 1.0 mph 3.0 mph 93% 0.00 in 0 W/m2
04:24 66.5 °F 64.1 °F 29.75 in South 2.0 mph 2.0 mph 92% 0.00 in 0 W/m2
04:30 66.6 °F 63.9 °F 29.75 in South 1.0 mph 1.0 mph 91% 0.00 in 0 W/m2
04:36 66.6 °F 63.9 °F 29.75 in South 1.0 mph 1.0 mph 91% 0.00 in 0 W/m2
04:42 66.7 °F 63.7 °F 29.75 in Calm   1.0 mph 90% 0.00 in 0 W/m2
04:48 66.7 °F 63.4 °F 29.76 in Calm   3.0 mph 89% 0.00 in 0 W/m2
04:54 66.7 °F 63.4 °F 29.76 in South 1.0 mph 2.0 mph 89% 0.00 in 0 W/m2
05:00 66.5 °F 63.2 °F 29.76 in Calm     89% 0.00 in 0 W/m2
05:06 66.1 °F 62.8 °F 29.76 in Calm     89% 0.00 in 0 W/m2
05:12 65.7 °F 62.7 °F 29.76 in Calm     90% 0.00 in 0 W/m2
05:18 65.2 °F 62.5 °F 29.76 in Calm     91% 0.00 in 0 W/m2
05:24 64.9 °F 62.2 °F 29.76 in Calm     91% 0.00 in 0 W/m2
05:30 64.6 °F 61.9 °F 29.76 in Calm     91% 0.00 in 0 W/m2
05:36 64.5 °F 61.8 °F 29.76 in Calm     91% 0.00 in 0 W/m2
05:42 64.3 °F 61.9 °F 29.76 in Calm     92% 0.00 in 0 W/m2
05:48 64.2 °F 61.8 °F 29.76 in Calm     92% 0.00 in 0 W/m2
05:54 64.0 °F 61.6 °F 29.76 in Calm     92% 0.00 in 0 W/m2
06:00 64.0 °F 61.6 °F 29.77 in Calm     92% 0.00 in 0 W/m2
06:06 63.9 °F 61.5 °F 29.77 in Calm     92% 0.00 in 0 W/m2
06:12 63.8 °F 61.4 °F 29.77 in Calm     92% 0.00 in 0 W/m2
06:18 63.6 °F 61.5 °F 29.77 in Calm     93% 0.00 in 0 W/m2
06:24 63.5 °F 61.4 °F 29.77 in Calm     93% 0.00 in 0 W/m2
06:30 63.3 °F 61.2 °F 29.77 in Calm     93% 0.00 in 0 W/m2
06:36 63.2 °F 61.1 °F 29.77 in Calm     93% 0.00 in 0 W/m2
06:42 63.1 °F 61.0 °F 29.77 in Calm     93% 0.00 in 0 W/m2
06:48 63.1 °F 61.0 °F 29.77 in Calm     93% 0.00 in 0 W/m2
06:54 63.0 °F 60.9 °F 29.77 in Calm     93% 0.00 in 5 W/m2
07:00 63.0 °F 60.9 °F 29.78 in Calm     93% 0.00 in 5 W/m2
07:06 63.0 °F 60.9 °F 29.77 in Calm     93% 0.00 in 9 W/m2
07:12 63.1 °F 61.0 °F 29.78 in Calm     93% 0.00 in 11 W/m2
07:18 63.3 °F 61.2 °F 29.78 in Calm     93% 0.00 in 18 W/m2
07:24 63.4 °F 61.3 °F 29.78 in Calm     93% 0.00 in 25 W/m2
07:30 63.4 °F 61.3 °F 29.78 in Calm     93% 0.00 in 30 W/m2
07:36 63.5 °F 61.4 °F 29.78 in Calm     93% 0.00 in 33 W/m2
07:42 63.4 °F 61.3 °F 29.78 in Calm     93% 0.00 in 37 W/m2
07:48 63.5 °F 61.7 °F 29.78 in Calm     94% 0.00 in 42 W/m2
07:54 63.6 °F 61.8 °F 29.78 in Calm     94% 0.00 in 47 W/m2
08:00 63.8 °F 62.0 °F 29.79 in Calm     94% 0.00 in 56 W/m2
08:06 64.0 °F 62.2 °F 29.79 in Calm     94% 0.00 in 67 W/m2
08:12 64.2 °F 62.4 °F 29.79 in Calm     94% 0.00 in 72 W/m2
08:18 64.5 °F 62.7 °F 29.79 in Calm     94% 0.00 in 67 W/m2
08:24 64.9 °F 63.1 °F 29.79 in Calm     94% 0.00 in 69 W/m2
08:30 65.1 °F 63.3 °F 29.79 in Calm     94% 0.00 in 88 W/m2
08:36 65.3 °F 63.5 °F 29.79 in Calm     94% 0.00 in 97 W/m2
08:42 65.6 °F 63.8 °F 29.79 in Calm     94% 0.00 in 114 W/m2
08:48 65.8 °F 64.0 °F 29.79 in Calm     94% 0.00 in 116 W/m2
08:54 66.0 °F 64.2 °F 29.79 in Calm     94% 0.00 in 132 W/m2
09:00 66.4 °F 64.6 °F 29.80 in Calm     94% 0.00 in 118 W/m2
09:06 66.9 °F 64.8 °F 29.80 in South 1.0 mph 2.0 mph 93% 0.00 in 93 W/m2
09:12 67.1 °F 65.0 °F 29.80 in Calm     93% 0.00 in 95 W/m2
09:18 67.4 °F 65.0 °F 29.80 in Calm     92% 0.00 in 162 W/m2
09:24 67.7 °F 65.0 °F 29.80 in South 1.0 mph 3.0 mph 91% 0.00 in 165 W/m2
09:30 68.1 °F 65.1 °F 29.80 in South 1.0 mph 1.0 mph 90% 0.00 in 165 W/m2
10:23 70.1 °F 64.3 °F 29.80 in Calm     82% 0.00 in 211 W/m2
10:29 70.3 °F 64.2 °F 29.80 in South 1.0 mph 1.0 mph 81% 0.00 in 202 W/m2
10:35 70.3 °F 64.2 °F 29.80 in South 1.0 mph 1.0 mph 81% 0.00 in 160 W/m2
10:42 70.4 °F 64.3 °F 29.81 in Calm   1.0 mph 81% 0.00 in 139 W/m2
10:48 70.5 °F 64.4 °F 29.81 in Calm     81% 0.00 in 141 W/m2
10:53 70.5 °F 64.7 °F 29.81 in Calm   2.0 mph 82% 0.00 in 141 W/m2
10:59 70.5 °F 64.4 °F 29.81 in Calm     81% 0.00 in 169 W/m2
11:05 70.5 °F 64.4 °F 29.81 in Calm     81% 0.00 in 151 W/m2
11:12 70.7 °F 64.9 °F 29.81 in Calm     82% 0.00 in 120 W/m2
11:18 70.8 °F 65.0 °F 29.81 in Calm   2.0 mph 82% 0.00 in 107 W/m2
11:23 70.5 °F 64.4 °F 29.81 in Calm     81% 0.00 in 69 W/m2
11:29 70.5 °F 64.7 °F 29.81 in Calm     82% 0.00 in 95 W/m2
11:36 70.6 °F 64.8 °F 29.81 in Calm   1.0 mph 82% 0.00 in 109 W/m2
11:42 70.4 °F 64.3 °F 29.81 in South 1.0 mph 3.0 mph 81% 0.00 in 88 W/m2
11:48 70.4 °F 64.3 °F 29.81 in South 1.0 mph 3.0 mph 81% 0.00 in 123 W/m2
11:53 70.5 °F 64.7 °F 29.81 in Calm   1.0 mph 82% 0.00 in 95 W/m2
11:59 70.5 °F 64.7 °F 29.81 in Calm     82% 0.00 in 121 W/m2
12:06 70.6 °F 64.8 °F 29.81 in Calm     82% 0.00 in 151 W/m2
12:12 70.7 °F 64.6 °F 29.81 in Calm   2.0 mph 81% 0.00 in 200 W/m2
12:18 71.0 °F 65.2 °F 29.81 in South 1.0 mph 2.0 mph 82% 0.00 in 230 W/m2
12:23 71.1 °F 65.0 °F 29.81 in South 1.0 mph 1.0 mph 81% 0.00 in 158 W/m2
12:30 71.1 °F 65.0 °F 29.80 in South 1.0 mph 1.0 mph 81% 0.00 in 163 W/m2
12:35 71.1 °F 65.0 °F 29.80 in South 1.0 mph 3.0 mph 81% 0.00 in 234 W/m2
12:42 71.2 °F 64.7 °F 29.80 in SW 1.0 mph 2.0 mph 80% 0.00 in 251 W/m2
12:48 71.3 °F 65.2 °F 29.80 in SSW 2.0 mph 5.0 mph 81% 0.00 in 250 W/m2
12:54 71.2 °F 65.1 °F 29.80 in SW 2.0 mph 3.0 mph 81% 0.00 in 162 W/m2
13:00 71.2 °F 65.1 °F 29.80 in SW 2.0 mph 3.0 mph 81% 0.00 in 309 W/m2
13:05 71.4 °F 65.6 °F 29.80 in WSW 2.0 mph 3.0 mph 82% 0.00 in 403 W/m2
13:12 71.9 °F 66.1 °F 29.80 in South 2.0 mph 3.0 mph 82% 0.00 in 476 W/m2
13:18 72.7 °F 66.2 °F 29.80 in WSW 1.0 mph 3.0 mph 80% 0.00 in 394 W/m2
13:23 73.1 °F 66.2 °F 29.80 in SW 1.0 mph 4.0 mph 79% 0.00 in 599 W/m2
13:30 73.2 °F 66.3 °F 29.80 in SW 1.0 mph 1.0 mph 79% 0.00 in 258 W/m2
13:35 72.9 °F 65.6 °F 29.80 in SW 1.0 mph 2.0 mph 78% 0.00 in 186 W/m2
13:42 72.6 °F 66.1 °F 29.80 in SW 1.0 mph 1.0 mph 80% 0.00 in 186 W/m2
13:48 72.4 °F 65.9 °F 29.80 in Calm   1.0 mph 80% 0.00 in 323 W/m2
13:54 72.4 °F 65.9 °F 29.79 in Calm     80% 0.00 in 385 W/m2
13:59 72.3 °F 65.8 °F 29.79 in SW 1.0 mph 1.0 mph 80% 0.00 in 445 W/m2
14:05 72.7 °F 66.5 °F 29.79 in SW 1.0 mph 1.0 mph 81% 0.00 in 348 W/m2
14:12 72.9 °F 66.0 °F 29.79 in WSW 1.0 mph 2.0 mph 79% 0.00 in 297 W/m2
14:18 72.9 °F 66.4 °F 29.79 in SE 1.0 mph 4.0 mph 80% 0.00 in 267 W/m2
14:24 73.0 °F 66.1 °F 29.79 in SE 1.0 mph 1.0 mph 79% 0.00 in 346 W/m2
14:30 73.1 °F 66.6 °F 29.79 in SE 1.0 mph 1.0 mph 80% 0.00 in 229 W/m2
14:35 72.8 °F 65.2 °F 29.79 in SE 1.0 mph 1.0 mph 77% 0.00 in 200 W/m2
14:42 72.8 °F 65.2 °F 29.79 in Calm     77% 0.00 in 209 W/m2
14:48 73.0 °F 66.1 °F 29.79 in Calm   1.0 mph 79% 0.00 in 199 W/m2
14:54 73.0 °F 65.7 °F 29.79 in Calm   3.0 mph 78% 0.00 in 185 W/m2
15:00 73.0 °F 66.5 °F 29.79 in South 1.0 mph 1.0 mph 80% 0.00 in 202 W/m2
15:06 73.0 °F 66.1 °F 29.79 in South 1.0 mph 2.0 mph 79% 0.00 in 232 W/m2
15:12 73.1 °F 66.2 °F 29.79 in South 1.0 mph 2.0 mph 79% 0.00 in 197 W/m2
15:18 73.3 °F 66.8 °F 29.80 in Calm   2.0 mph 80% 0.00 in 179 W/m2
15:24 73.1 °F 66.2 °F 29.80 in SE 1.0 mph 4.0 mph 79% 0.00 in 209 W/m2
15:30 72.7 °F 66.2 °F 29.80 in South 2.0 mph 2.0 mph 80% 0.00 in 179 W/m2
15:35 72.6 °F 65.7 °F 29.79 in SSW 2.0 mph 3.0 mph 79% 0.00 in 158 W/m2
15:42 72.5 °F 66.3 °F 29.80 in SSE 1.0 mph 2.0 mph 81% 0.00 in 102 W/m2
15:48 72.3 °F 65.8 °F 29.80 in Calm   2.0 mph 80% 0.00 in 62 W/m2
15:53 72.3 °F 65.8 °F 29.80 in Calm     80% 0.00 in 63 W/m2
15:59 72.2 °F 65.7 °F 29.80 in Calm     80% 0.00 in 62 W/m2
16:05 72.1 °F 65.6 °F 29.80 in South 1.0 mph 2.0 mph 80% 0.00 in 77 W/m2
16:12 72.1 °F 65.9 °F 29.80 in South 1.0 mph 2.0 mph 81% 0.00 in 69 W/m2
16:18 72.0 °F 65.8 °F 29.80 in South 1.0 mph 2.0 mph 81% 0.00 in 83 W/m2
16:23 72.1 °F 65.9 °F 29.80 in South 1.0 mph 1.0 mph 81% 0.00 in 104 W/m2
16:30 72.2 °F 65.7 °F 29.80 in Calm     80% 0.00 in 118 W/m2
16:36 72.3 °F 65.8 °F 29.80 in South 1.0 mph 2.0 mph 80% 0.00 in 98 W/m2
16:42 72.3 °F 65.8 °F 29.80 in South 1.0 mph 2.0 mph 80% 0.00 in 93 W/m2
16:48 72.3 °F 66.1 °F 29.80 in WSW 1.0 mph 2.0 mph 81% 0.00 in 95 W/m2
16:53 72.3 °F 66.5 °F 29.80 in WSW 1.0 mph 1.0 mph 82% 0.00 in 100 W/m2
16:59 72.2 °F 66.0 °F 29.80 in WSW 1.0 mph 1.0 mph 81% 0.00 in 107 W/m2
17:06 72.2 °F 66.0 °F 29.80 in West 1.0 mph 1.0 mph 81% 0.00 in 111 W/m2
17:12 71.9 °F 65.4 °F 29.81 in NW 1.0 mph 2.0 mph 80% 0.00 in 93 W/m2
17:18 71.1 °F 64.6 °F 29.81 in NW 1.0 mph 4.0 mph 80% 0.00 in 84 W/m2
17:23 70.4 °F 63.9 °F 29.81 in NW 1.0 mph 1.0 mph 80% 0.00 in 67 W/m2
17:29 70.0 °F 63.5 °F 29.82 in Calm     80% 0.00 in 49 W/m2
17:36 69.6 °F 63.5 °F 29.82 in Calm   2.0 mph 81% 0.00 in 37 W/m2
17:42 69.1 °F 63.4 °F 29.82 in Calm   1.0 mph 82% 0.00 in 46 W/m2
17:48 68.7 °F 63.7 °F 29.81 in Calm   1.0 mph 84% 0.00 in 56 W/m2
17:53 68.3 °F 62.9 °F 29.82 in Calm     83% 0.00 in 58 W/m2
17:59 68.1 °F 63.1 °F 29.82 in Calm     84% 0.00 in 63 W/m2
18:05 68.0 °F 63.0 °F 29.82 in Calm     84% 0.00 in 56 W/m2
18:12 68.1 °F 63.8 °F 29.82 in Calm     86% 0.00 in 47 W/m2
18:18 67.7 °F 63.4 °F 29.82 in Calm     86% 0.00 in 40 W/m2
18:23 67.4 °F 63.7 °F 29.82 in Calm     88% 0.00 in 35 W/m2
18:29 66.9 °F 63.2 °F 29.83 in Calm     88% 0.00 in 33 W/m2
18:35 66.5 °F 63.2 °F 29.83 in Calm     89% 0.00 in 32 W/m2
18:42 66.3 °F 63.0 °F 29.83 in Calm     89% 0.00 in 26 W/m2
18:48 66.1 °F 63.1 °F 29.83 in Calm     90% 0.00 in 21 W/m2
18:54 66.0 °F 63.0 °F 29.83 in Calm     90% 0.00 in 19 W/m2
19:49 64.2 °F 61.8 °F 29.85 in Calm     92% 0.00 in 0 W/m2
19:56 64.1 °F 61.7 °F 29.86 in Calm     92% 0.00 in 0 W/m2
20:02 64.0 °F 61.6 °F 29.86 in Calm     92% 0.00 in 0 W/m2
20:08 63.8 °F 61.4 °F 29.86 in Calm     92% 0.00 in 0 W/m2
20:13 63.8 °F 61.4 °F 29.86 in Calm     92% 0.00 in 0 W/m2
20:19 63.8 °F 61.4 °F 29.87 in Calm     92% 0.00 in 0 W/m2
20:25 63.8 °F 61.4 °F 29.87 in Calm     92% 0.00 in 0 W/m2
20:32 63.8 °F 61.4 °F 29.88 in Calm     92% 0.00 in 0 W/m2
20:38 63.6 °F 61.5 °F 29.88 in Calm     93% 0.00 in 0 W/m2
20:46 63.5 °F 61.4 °F 29.88 in Calm     93% 0.00 in 0 W/m2
20:52 63.5 °F 61.4 °F 29.88 in Calm     93% 0.00 in 0 W/m2
20:58 63.5 °F 61.4 °F 29.88 in Calm     93% 0.00 in 0 W/m2
21:03 63.5 °F 61.4 °F 29.88 in Calm     93% 0.00 in 0 W/m2
21:09 63.4 °F 61.3 °F 29.88 in Calm     93% 0.00 in 0 W/m2
21:16 63.4 °F 61.3 °F 29.88 in Calm     93% 0.00 in 0 W/m2
21:22 63.3 °F 61.2 °F 29.88 in Calm     93% 0.00 in 0 W/m2
21:28 63.3 °F 61.2 °F 29.88 in Calm     93% 0.00 in 0 W/m2
21:34 63.2 °F 61.1 °F 29.88 in Calm     93% 0.00 in 0 W/m2
21:39 63.1 °F 61.0 °F 29.88 in Calm     93% 0.00 in 0 W/m2
21:45 62.9 °F 60.8 °F 29.88 in Calm     93% 0.00 in 0 W/m2
21:52 62.7 °F 60.6 °F 29.88 in Calm     93% 0.00 in 0 W/m2
21:58 62.5 °F 60.4 °F 29.88 in Calm     93% 0.00 in 0 W/m2
22:03 62.3 °F 60.2 °F 29.88 in Calm     93% 0.00 in 0 W/m2
22:09 62.2 °F 60.2 °F 29.88 in Calm     93% 0.00 in 0 W/m2
22:16 62.0 °F 60.0 °F 29.89 in Calm     93% 0.00 in 0 W/m2
22:22 61.9 °F 59.9 °F 29.89 in Calm     93% 0.00 in 0 W/m2
22:28 61.8 °F 59.8 °F 29.89 in Calm     93% 0.00 in 0 W/m2
22:33 61.8 °F 59.8 °F 29.89 in Calm     93% 0.00 in 0 W/m2
22:40 61.8 °F 60.1 °F 29.90 in Calm     94% 0.00 in 0 W/m2
22:45 61.6 °F 59.9 °F 29.90 in Calm     94% 0.00 in 0 W/m2
22:52 61.4 °F 59.4 °F 29.90 in Calm     93% 0.00 in 0 W/m2
22:58 61.2 °F 59.5 °F 29.90 in Calm     94% 0.00 in 0 W/m2
23:03 61.1 °F 59.4 °F 29.90 in Calm     94% 0.00 in 0 W/m2
23:09 61.0 °F 59.3 °F 29.90 in Calm     94% 0.00 in 0 W/m2
23:28 60.8 °F 59.1 °F 29.90 in Calm     94% 0.00 in 0 W/m2
23:34 60.6 °F 58.9 °F 29.90 in Calm     94% 0.00 in 0 W/m2
23:42 60.4 °F 58.7 °F 29.90 in Calm     94% 0.00 in 0 W/m2
23:43 60.4 °F 58.7 °F 29.90 in Calm     94% 0.00 in 0 W/m2
23:49 60.3 °F 58.6 °F 29.91 in Calm     94% 0.00 in 0 W/m2
23:55 60.2 °F 58.5 °F 29.91 in Calm     94% 0.00 in 0 W/m2
23:58 60.2 °F 58.5 °F 29.91 in Calm     94% 0.00 in 0 W/m2
Country Meadow, Clay, NY, USA
Compliments of Weather Underground - 2 mb